Weather History for KOMA - October, 2014

Change the Weather History Date:

Wednesday, October 1, 2014

  Actual Average Record
Temperature  
Mean Temperature 69 °F 59 °F  
Max Temperature 75 °F 71 °F 94 °F (1976)
Min Temperature 62 °F 47 °F 29 °F (1974)
Degree Days  
Heating Degree Days 0 7  
Month to date heating degree days 0 7  
Since 1 July heating degree days 78 110  
Cooling Degree Days 4 1  
Month to date cooling degree days 4 1  
Year to date cooling degree days 1147 1098  
Growing Degree Days 18 (Base 50)    
Moisture  
Dew Point 62 °F    
Average Humidity 79    
Maximum Humidity 93    
Minimum Humidity 64    
Precipitation  
Precipitation 0.75 in 0.08 in 1.86 in (1950)
Month to date precipitation 0.75 0.08  
Year to date precipitation 35.51 25.87  
Snow  
Snow 0.00 in 0.00 in - ()
Month to date snowfall 0.0 0.0  
Since 1 July snowfall 0.0 0.0  
Snow Depth 0.00 in    
Sea Level Pressure  
Sea Level Pressure 29.75 in    
Wind  
Wind Speed 5 mph (SE)    
Max Wind Speed 17 mph    
Max Gust Speed 21 mph    
Visibility 7 miles    
Events Rain , Thunderstorm    
T = Trace of Precipitation, MM = Missing Value Source: NWS Daily Summary

Daily Weather History Graph

Daily Weather History Graph

Search for Another Location

Airport or City:

Trip Planner

Search our weather history database for the weather conditions in past years. The results will help you decide how hot, cold, wet, or windy it might be!

Date:

Astronomy

Oct. 01, 2014 Rise Set
Actual Time 7:20 AM CDT 7:05 PM CDT
Civil Twilight 6:52 AM CDT 7:32 PM CDT
Nautical Twilight 6:20 AM CDT 8:04 PM CDT
Astronomical Twilight 5:48 AM CDT 8:37 PM CDT
Moon 2:24 PM CDT (10/1) No Moon Set
Length of Visible Light 12h 40m
Length of Day
11h 45m
Waxing Crescent, 49% of the Moon is Illuminated
Oct 1
Waxing Crescent
Oct 1
First Quarter
Oct 8
Full
Oct 15
Last Quarter
Oct 23
New

Hourly Weather History & Observations

Time (CDT) Temp. Dew Point Humidity Pressure Visibility Wind Dir Wind Speed Gust Speed Precip Events Conditions
12:52 AM 64.9 °F 61.0 °F 87% 29.75 in 5.0 mi SE 17.3 mph - 0.13 in Rain , Thunderstorm Light Thunderstorms and Rain
1:52 AM 64.9 °F 62.1 °F 90% 29.76 in 6.0 mi SSE 9.2 mph - 0.04 in Rain , Thunderstorm Light Thunderstorms and Rain
2:52 AM 64.0 °F 62.1 °F 93% 29.73 in 6.0 mi ESE 11.5 mph - 0.07 in Rain , Thunderstorm Light Thunderstorms and Rain
3:05 AM 64.0 °F 61.0 °F 90% 29.73 in 6.0 mi East 12.7 mph - 0.03 in Rain Rain
3:52 AM 62.6 °F 60.8 °F 94% 29.70 in 10.0 mi SE 10.4 mph - N/A Rain Light Rain
4:52 AM 63.0 °F 59.0 °F 87% 29.69 in 7.0 mi South 5.8 mph - 0.05 in Rain Heavy Rain
5:08 AM 63.0 °F 59.0 °F 87% 29.73 in 2.0 mi SSE 6.9 mph - 0.09 in Rain Rain
5:27 AM 62.1 °F 60.1 °F 93% 29.73 in 5.0 mi SSW 3.5 mph - 0.35 in Rain Light Rain
5:52 AM 62.1 °F 60.1 °F 93% 29.71 in 5.0 mi SSE 9.2 mph - 0.51 in Rain Rain
6:52 AM 62.1 °F 59.0 °F 90% 29.72 in 10.0 mi SE 10.4 mph - 0.05 in Rain Light Rain
7:52 AM 62.1 °F 59.0 °F 90% 29.73 in 10.0 mi SE 3.5 mph - 0.00 in Rain Light Rain
8:52 AM 64.9 °F 60.1 °F 84% 29.74 in 10.0 mi Calm Calm - 0.01 in   Mostly Cloudy
9:52 AM 66.0 °F 61.0 °F 84% 29.75 in 10.0 mi NNE 3.5 mph - N/A   Mostly Cloudy
10:49 AM 68.0 °F 62.6 °F 83% 29.76 in 10.0 mi SE 6.9 mph - N/A   Mostly Cloudy
10:52 AM 68.0 °F 62.1 °F 81% 29.75 in 10.0 mi SSE 5.8 mph - N/A   Mostly Cloudy
11:52 AM 69.1 °F 62.1 °F 78% 29.74 in 10.0 mi Variable 5.8 mph - N/A   Mostly Cloudy
12:33 PM 71.1 °F 63.0 °F 75% 29.75 in 10.0 mi SSE 5.8 mph - N/A   Mostly Cloudy
12:52 PM 72.0 °F 63.0 °F 73% 29.73 in 10.0 mi SE 5.8 mph - N/A   Mostly Cloudy
1:52 PM 73.9 °F 62.1 °F 66% 29.72 in 10.0 mi SSE 8.1 mph - N/A   Mostly Cloudy
2:52 PM 66.9 °F 64.0 °F 90% 29.81 in 3.0 mi West 11.5 mph - 0.06 in Rain Rain
2:59 PM 66.0 °F 63.0 °F 90% 29.82 in 2.0 mi West 9.2 mph - 0.05 in Rain Heavy Rain
3:15 PM 66.0 °F 63.0 °F 90% 29.82 in 4.0 mi North 3.5 mph - 0.12 in Rain Rain
3:48 PM 66.2 °F 62.6 °F 88% 29.81 in 2.5 mi SSE 3.5 mph - 0.25 in Rain Heavy Rain
3:52 PM 66.0 °F 63.0 °F 90% 29.79 in 2.5 mi SE 5.8 mph - 0.27 in Rain Heavy Rain
4:06 PM 66.0 °F 63.0 °F 90% 29.80 in 3.0 mi SSE 4.6 mph - 0.07 in Rain Rain
4:52 PM 73.9 °F 62.1 °F 66% 29.71 in 10.0 mi Variable 3.5 mph - N/A   Mostly Cloudy
5:52 PM 66.0 °F 64.0 °F 93% 29.78 in 4.0 mi East 9.2 mph - 0.17 in Rain , Thunderstorm Thunderstorms and Rain
6:52 PM 66.0 °F 63.0 °F 90% 29.78 in 4.0 mi SSE 11.5 mph - 0.13 in Rain Light Rain
7:01 PM 66.0 °F 63.0 °F 90% 29.78 in 4.0 mi SE 10.4 mph - 0.00 in Rain , Thunderstorm Light Thunderstorms and Rain
7:52 PM 69.1 °F 64.0 °F 84% 29.75 in 10.0 mi Calm Calm - N/A   Mostly Cloudy
8:52 PM 66.9 °F 62.1 °F 84% 29.76 in 10.0 mi East 5.8 mph - N/A   Scattered Clouds
9:52 PM 66.0 °F 61.0 °F 84% 29.77 in 10.0 mi East 3.5 mph - N/A   Mostly Cloudy
10:52 PM 64.0 °F 61.0 °F 90% 29.78 in 10.0 mi Calm Calm - N/A   Mostly Cloudy
11:52 PM 64.4 °F 62.6 °F 94% 29.78 in 8.0 mi North 3.5 mph - N/A   Mostly Cloudy